Regional Weather Roundup
Issued by NWS

Home | Current Version | Previous Version | Text Only | Print | Product List | Glossary Off
Versions: 1 2 3 4 5 6 7 8 9 10 11 12 13 14 15 16 17 18 19 20 21 22 23 24 25 26 27 28 29 30 31 32 33 34 35 36 37 38 39 40 41 42 43 44 45 46 47 48 49 50

000
ASUS43 KLMK 300802
RWRKY
KENTUCKY REGIONAL WEATHER ROUNDUP
NATIONAL WEATHER SERVICE LOUISVILLE KY
400 AM EDT WED JUL 30 2014

NOTE "FAIR" INDICATES FEW OR NO CLOUDS BELOW 12,000 FEET
WITH NO SIGNIFICANT WEATHER AND/OR OBSTRUCTIONS TO VISIBILITY.

KYZ001>023-026-027-061>063-070>075-300900-
WESTERN AND SOUTH CENTRAL KENTUCKY

CITY           SKY/WX    TMP DP  RH WIND       PRES   REMARKS
PADUCAH        CLEAR     59  55  87 CALM      30.08F
HENDERSON      CLEAR     57  54  88 CALM      30.08S
OWENSBORO      CLEAR     58  56  93 CALM      30.09S
HOPKINSVILLE   CLEAR     57  55  92 SW2       30.09F
BOWLING GREEN  CLEAR     59  54  83 CALM      30.10S
GLASGOW        CLEAR     56  56 100 CALM      30.10S
$$

KYZ024-025-028>034-038-045-046-053-300900-
NORTH CENTRAL KENTUCKY

CITY           SKY/WX    TMP DP  RH WIND       PRES   REMARKS
LOUISVILLE/SDF CLEAR     65  59  81 W3        30.07R
LOUISVILLE/LOU CLEAR     62  59  90 CALM      30.08R
FORT KNOX      CLEAR     58  57  97 CALM      30.07S
$$

KYZ035>037-039>044-047>052-055>060-089>105-300900-
NORTHEAST KENTUCKY

CITY           SKY/WX    TMP DP  RH WIND       PRES   REMARKS
LEXINGTON      CLEAR     59  54  83 S6        30.08S
COVINGTON      PTCLDY    60  57  89 CALM      30.05F
FRANKFORT      PTCLDY    56  55  97 CALM      30.07S
$$

KYZ054-064>069-076>088-106>120-300900-
SOUTHEAST KENTUCKY

CITY           SKY/WX    TMP DP  RH WIND       PRES   REMARKS
JACKSON        CLEAR     55  53  93 CALM      30.11R
LONDON         CLEAR     55  52  89 CALM      30.12R FOG
SOMERSET       CLEAR     54  54 100 CALM      30.12S
MIDDLESBORO    CLOUDY    54  53  98 CALM      30.13S
MONTICELLO     SUNNY     54  53  96 CALM      30.13R
$$



USA.gov is the U.S. government's official web portal to all federal, state and local government web resources and services.